Flag for Austria Weather for the Past 2 Weeks in Waidhofen an der Ybbs, Lower Austria, Austria

Now
44 °F

Quite cool.


Feels Like: 44 °F
Forecast: 38 / 51 °F
Wind: 2 mph from Southwest

Location: Amstetten

Current Time: Feb 8, 2016 at 6:06:31 AM

Latest Report: Feb 8, 2016 at 5:00 AM


Visibility: N/A

Pressure: 29.98 "Hg

Humidity: 80%

Dew point: 38 °F

Location of Waidhofen an der YbbsLocation

Historic Weather in Waidhofen an der Ybbs — Graph

°F

Waidhofen an der Ybbs Temperature Yesterday

Maximum temperature yesterday: 47 °F (at 3:00 PM)
Minimum temperature yesterday: 34 °F (at 7:00 AM)
Average temperature yesterday: 40 °F

High & Low Weather Summary for the Past Weeks

 TemperatureHumidityPressure
High59 °F (Jan 28, 2:00 PM)100% (Jan 24, 9:00 PM)30.62 "Hg (Jan 24, 9:00 PM)
Low28 °F (Feb 6, 6:00 AM)46% (Jan 28, 2:00 PM)29.74 "Hg (Feb 7, 4:00 PM)
Average40 °F89%30.25 "Hg
* Reported Jan 23 9:00 PM — Feb 7 9:00 PM, Waidhofen an der Ybbs, Weather by CustomWeather, © 2016

Note: Actual official high and low records may vary slightly from our data, if they occured in-between our weather recording intervals... More about our weather records

Advertising

Waidhofen an der Ybbs Weather History for the Previous 24 Hours

 ConditionsComfort  
Time TempWeatherWind HumidityBarometerVisibility
9:00 PM
Sun, Feb 7
40 °FChilly.1 mph92%29.80 "HgN/A
8:00 PM40 °FQuite cool.2 mph90%29.78 "HgN/A
7:00 PM42 °FQuite cool.1 mph87%29.77 "HgN/A
6:00 PM43 °FQuite cool.2 mph86%29.76 "HgN/A
5:00 PM45 °FCool.3 mph80%29.74 "HgN/A
4:00 PM46 °FCool.5 mph79%29.74 "HgN/A
3:00 PM47 °FCool.5 mph76%29.74 "HgN/A
2:00 PM44 °FQuite cool.6 mph77%29.76 "HgN/A
1:00 PM42 °FQuite cool.6 mph84%29.80 "HgN/A
12:00 PM40 °FQuite cool.5 mph86%29.83 "HgN/A
11:00 AM38 °FChilly.5 mph89%29.85 "HgN/A
10:00 AM36 °FChilly.5 mph93%29.85 "HgN/A
9:00 AM35 °FChilly.3 mph96%29.86 "HgN/A
8:00 AM34 °FChilly.3 mph96%29.86 "HgN/A
7:00 AM34 °FChilly.5 mph95%29.85 "HgN/A
6:00 AM35 °FChilly.5 mph94%29.85 "HgN/A
Weather by CustomWeather, © 2016

See weather overviewHow to use our weather pages